Regional Weather Roundup
Issued by NWS Grand Forks, ND

Home | Current Version | Previous Version | Text Only | Print | Product List | Glossary Off
Versions: 1 2 3 4 5 6 7 8 9 10 11 12 13 14 15 16 17 18 19 20 21 22 23 24 25 26 27 28 29 30 31 32 33 34 35 36 37 38 39 40 41 42 43 44 45 46 47 48 49 50

000
ASUS43 KFGF 172310
RWRFGF
PRAIRIE TO PINES  WEATHER ROUNDUP
NATIONAL WEATHER SERVICE EASTERN NORTH DAKOTA/GRAND FORKS ND
600 PM CDT THU AUG 17 2017

 **SATELLITE DATA USED TO AUGMENT SKY COVER AT AUTOMATED STATIONS**
 *****  WEATHER ACROSS EASTERN NORTH DAKOTA  *****

CITY           SKY/WX    TMP DP  RH WIND       PRES   REMARKS
GRAND FORKS    FAIR      79  63  57 N5        29.82S
GRAND FRKS AFB PTSUNNY   80  61  52 CALM      29.83F
DEVILS LAKE    FAIR      78  54  43 NW5       29.87S
FARGO          FAIR      79  60  52 NW8       29.84S
WAHPETON ARPT  FAIR      73  55  53 NW10G16   29.85S
$$

 ***** WEATHER ACROSS CENTRAL AND WESTERN NORTH DAKOTA  *****

CITY           SKY/WX    TMP DP  RH WIND       PRES   REMARKS
BISMARCK       FAIR      81  56  42 S12       29.84F
MINOT          FAIR      85  52  32 SE9       29.80F
JAMESTOWN      FAIR      79  57  46 SE5       29.86S
MINOT AFB      FAIR      84  51  31 E8        29.79F
GARRISON         N/A     80  62  54 S8        29.80F
WILLISTON      FAIR      84  52  33 N12       29.83S
DICKINSON        N/A     82  45  27 MISG      29.85F
HETTINGER      FAIR      80  51  36 NW8       29.90F
$$

 *****  OTHER AIRPORT OBSERVATIONS IN OUR AREA  *****

CITY           SKY/WX    TMP DP  RH WIND       PRES   REMARKS
WALHALLA       FAIR      81  81 100 N6        29.83R HX  91
GRAFTON AIRPOR FAIR      79  59  50 N3        29.84S
VALLEY CITY AR   N/A     79  57  47 CALM      29.88R
CANDO          FAIR      79  55  44 CALM      29.88R
CAVALIER APRT  FAIR      79  55  44 N7        29.82S
GWINNER        CLEAR     79  59  50 CALM      29.86S
SHEYENNE NWR     N/A     79  58  47 N5        29.95S
ROLLA          MOCLDY    75  55  50 CALM      29.88S
 ***** THE ABOVE OBSERVATIONS ARE NON NWS ARE NOT QUALITY
       CONTROLLED AND MAY MIS-REPORT RAIN FOR SNOW...
$$

  *****  WEATHER ACROSS NORTHERN MINNESOTA  *****

CITY           SKY/WX    TMP DP  RH WIND       PRES   REMARKS
FLAG ISLAND    FAIR      75  54  46 NW6       29.80S
WARROAD        FAIR      75  64  69 E3        29.82R
ROSEAU         FAIR      79  59  50 NW7       29.82S
HALLOCK        FAIR      81  54  39 NW7       29.81S
THF RVR FALLS  FAIR      78  56  46 NW13G20   29.84S
BAUDETTE       FAIR      73  57  57 NW7       29.81S
WASKISH        PTSUNNY   72  57  60 N6        29.82S
CROOKSTON      FAIR      77  57  50 N9        29.84S
STEPHEN NDAWN    N/A     81  55  41 N7          N/A
GREENBUSH NDAW   N/A     77  57  50 W6          N/A
$$
  *****  WEATHER ACROSS CENTRAL AND WEST MINNESOTA  *****

CITY           SKY/WX    TMP DP  RH WIND       PRES   REMARKS
FOSSTON        FAIR      79  61  53 N9        29.84S
BEMIDJI        FAIR      71  57  60 N12G17    29.84S
PARK RAPIDS    FAIR      74  57  55 N10       29.83R
ELBOW LAKE     FAIR      73  61  65 W14       29.85S HAZE
WADENA         FAIR      73  57  56 NW10      29.84R
DETROIT LAKES  FAIR      73  57  56 NW8       29.86R
MOORHEAD       FAIR      75  61  60 NW9       29.85R
FERGUS FALLS   FAIR      75  61  60 NW8       29.83S
MORRIS MN      FAIR      75  63  64 NW14G20   29.84S
STAPLES        FAIR      72  57  60 N8        29.83R
$$
  *****  WEATHER ELSEWHERE ACROSS MINNESOTA  *****

CITY           SKY/WX    TMP DP  RH WIND       PRES   REMARKS
DULUTH         CLOUDY    62  61  96 NW13      29.74R
INTRNTL FALLS  FAIR      67  59  75 N8        29.81R
ELY            DRIZZLE   61  59  94 N6        29.75R
CLOQUET        CLOUDY    63  59  88 NW14G21   29.76R
WHEATON        FAIR      75  57  53 NW10      29.87S
BRAINERD       CLOUDY    70  60  70 N14       29.81R
HIBBING        CLOUDY    62  59  90 N12G22    29.78R
ALEXANDRIA     FAIR      75  60  59 NW10      29.86R
SAINT CLOUD    PTSUNNY   72  62  71 N14G23    29.80R
MINNEAPOLIS    CLOUDY    72  61  68 NW16      29.77R
$$

  *****  WEATHER ACROSS SOUTH DAKOTA  *****

CITY           SKY/WX    TMP DP  RH WIND       PRES   REMARKS
SIOUX FALLS    FAIR      80  61  52 NW8       29.90R
BROOKINGS      FAIR      76  58  53 N5        29.90S
WATERTOWN      FAIR      76  57  51 N6        29.88S
HURON          FAIR      80  59  48 E6        29.87S
SISSETON         N/A     78  61  55 N8        29.85S
ABERDEEN       FAIR      79  58  48 E6        29.87S
MITCHELL       FAIR      81  60  48 SE5       29.88F
PIERRE         FAIR      81  57  43 SE18      29.78F
MOBRIDGE       FAIR      80  60  50 E10       29.83S
RAPID CITY     FAIR      78  46  32 N30G36    29.94R
$$

  *****  SOME WEATHER IN NEARBY STATES *****

CITY           SKY/WX    TMP DP  RH WIND       PRES   REMARKS
GLASGOW MT     FAIR      86  37  17 N18       29.90R
GREAT FALLS MT FAIR      81  35  19 NW7       30.02S
CHEYENNE WY    FAIR      82  34  17 NW15G22   30.14S
SCOTTSBLUFF NE FAIR      90  43  19 NW5       29.96F
OMAHA NE       FAIR      83  59  44 W14       29.91S
DES MOINES IA  FAIR      82  60  47 NW17G23   29.85R
DAVENPORT IA   FAIR      77  63  61 W16G24    29.81R
CHICAGO IL     PTSUNNY   81  64  56 W21G29    29.72S
EAU CLAIRE WI  CLOUDY    67  60  78 NW14      29.70R
LA CROSSE WI   CLOUDY    73  62  68 NW15      29.71R
$$

  *****  SOME NATIONAL WEATHER *****

CITY           SKY/WX    TMP DP  RH WIND       PRES   REMARKS
LA GUARDIA NY  MOCLDY    78  62  57 S10       29.97S
RALEIGH NC     PTSUNNY   84  75  74 S12       29.97F HX  92
ATLANTA GA     FAIR      88  69  53 W10       30.01F HX  92
NEW ORLEANS LA PTSUNNY   88  79  74 S7        30.00F HX 103
OKLAHOMA CITY  FAIR      91  63  39 CALM      29.97F HX  92
ALBUQUERQUE NM FAIR      90  33  13 W6        30.15F
SALT LAKE CITY FAIR      91  39  16 N10       30.08F
LOS ANGELES CA FAIR      73  63  70 W15G22    29.97F
BOISE ID       FAIR      87  36  16 W16       30.05F
SEATTLE WA     FAIR      73  54  51 SW6       30.18F
$$

*** WEATHER ACROSS MANITOBA...SASKATCHEWAN AND ONTARIO ***
                ***ONTARIO***

CITY           SKY/WX    TMP DP  RH WIND       PRES   REMARKS
GERALDTON      LGT RAIN  59  57  94 NE9       29.76F FOG
THUNDER BAY    CLOUDY    63  63 100 N7        29.65R
SIOUX LOOKOUT  PTSUNNY   61  55  82 E3        29.81S
TORONTO        LGT RAIN  66  63  88 E9        29.82F
BIG TROUT LK   CLOUDY    72  55  56 VRB2      29.78S
PICKLE LAKE    CLOUDY    66  57  72 E7        29.82S
DRYDEN         SUNNY     66  57  72 E6        29.80S
KENORA         NOT AVBL
$$
                *** MANITOBA***

CITY           SKY/WX    TMP DP  RH WIND       PRES   REMARKS
BRANDON        PTSUNNY   77  57  50 W9        29.84F
DAUPHIN        SUNNY     81  52  36 SW6       29.80S
ISLAND LAKE    MOSUNNY   73  55  53 SW2       29.76S
PILOT MOUND      N/A     79  46  31 NW3         N/A
THE PAS        MOSUNNY   73  55  53 W5        29.75F
THOMPSON       MOSUNNY   77  41  27 W9        29.68S
WINNIPEG       MOSUNNY   79  50  36 NW14      29.81R
LYNN LAKE      PTSUNNY   70  46  43 MISG      29.66R
CHURCHILL      CLOUDY    72  61  68 S13       29.64S
GILLAM         MOSUNNY   77  46  33 W7        29.68F
$$
                ***SASKATCHEWAN***

CITY           SKY/WX    TMP DP  RH WIND       PRES   REMARKS
ESTEVAN        MOSUNNY   82  54  36 NE8       29.84S
KINDERSLEY     PTSUNNY   73  39  29 NW13G21   29.94S
LLOYDMINSTER   MOSUNNY   72  50  46 W13G20    29.90S
PRINCE ALBERT  NOT AVBL
REGINA         PTSUNNY   79  46  31 NW8       29.89R
YORKTON        SUNNY     77  50  38 W13       29.84S
N. BATTLEFORD  SUNNY     75  52  43 NW13G20   29.90S
LA RONGE       MOSUNNY   75  50  41 W14G21    29.75S
SASKATOON      PTSUNNY   75  50  41 NW13      29.88S
SWIFT CURRENT  SUNNY     77  45  31 NW7       29.95S
$$
NOTE: THESE ARE AUTOMATED STATIONS WITH LIMITED QUALITY CONTROL
      "FAIR" INDICATES FEW OR NO CLOUDS BELOW 12,000 FEET WITH NO
      SIGNIFICANT WEATHER AND/OR OBSTRUCTIONS TO VISIBILITY.
      SKY/WX - SKY CONDITION AND SIGNIFICANT WEATHER.
      TMP - AIR TEMPERATURE.    DP   - DEWPOINT TEMPERATURE.
      RH  - RELATIVE HUMIDITY.  PRES - PRESSURE.
      HX  - HEAT INDEX.         WCI  - WIND CHILL INDEX.
$




USA.gov is the U.S. government's official web portal to all federal, state and local government web resources and services.